Simultaneous Nadir Overpasses (SNOs) Predictions

Prediction of SNOs between GOES-17 and AQUA Satellite Orbit:

Table of predicted SNOs for the next 14.0 days since TLE Epoch: 10/21/2023
Index Date Time (GOES-17) GOES-17 Lat,Lon AQUA Lat,Lon Distance(km) Time Diff (sec)
1 10/21/2023 20:42:55 0.00,-104.66 0.68,-101.61 348.12 80
2 10/22/2023 09:03:29 0.00,-104.69 0.41,-106.58 215.34 80
3 10/24/2023 08:46:00 -0.00,-104.68 -0.39,-102.97 195.42 80
4 10/24/2023 21:06:43 0.00,-104.65 -0.70,-107.98 379.00 80
5 10/26/2023 20:54:32 0.00,-104.64 0.07,-104.36 32.85 80
6 10/28/2023 20:39:40 0.00,-104.64 0.82,-100.72 445.24 80
7 10/29/2023 09:00:14 -0.00,-104.68 0.22,-105.71 117.35 80
8 10/31/2023 08:42:41 0.00,-104.67 -0.55,-102.07 295.29 80
9 10/31/2023 21:03:23 -0.00,-104.63 -0.54,-107.08 278.99 80
10 11/02/2023 20:51:09 0.01,-104.63 0.25,-103.45 133.94 80
11 11/03/2023 09:11:42 -0.01,-104.66 0.82,-108.42 427.98 80
